Retour au catalogue

COSMOS 2535 DEB

ActifSSO
NORAD 44712·DEBRIS·🇷🇺 Russia

Lancé Jul 10, 2019 depuis Plesetsk Cosmodrome

Loading…

Prochains Passages (prochaines 24 heures)

TLE

VieillissantSource: Space-Track

Époque: Sep 3, 2026, 05:38 UTC

1 44712U 19039P   26246.23503098  .00001293  00000-0  13574-3 0  9998
2 44712  97.6832 243.4412 0039381 107.7957 252.7564 14.90623297374115

Suivez COSMOS 2535 DEB en temps réel avec AllMySat

Download on the App Store